Regional Weather Roundup
Issued by NWS Northern Indiana

Home | Current Version | Previous Version | Text Only | Print | Product List | Glossary On
Versions: 1 2 3 4 5 6 7 8 9 10 11 12 13 14 15 16 17 18 19 20 21 22 23 24 25 26 27 28 29 30 31 32 33 34 35 36 37 38 39 40 41 42 43 44 45 46 47 48 49 50
000
ASUS43 KIWX 291210
RWRIWX

KIWX WEATHER ROUNDUP
NATIONAL WEATHER SERVICE NORTHERN INDIANA
800 AM EDT FRI JUL 29 2016

NOTE: "FAIR" INDICATES FEW OR NO CLOUDS BELOW 12,000 FEET WITH NO
SIGNIFICANT WEATHER AND/OR OBSTRUCTIONS TO VISIBILITY.

* THESE STATIONS ARE NOT UNDER NWS QUALITY CONTROL. THEY ALSO MAY NOT
  REPORT WEATHER SUCH AS PRECIPITATION OR FOG.

INZ001>027-291300-
NORTHERN INDIANA

CITY           SKY/WX    TMP DP  RH WIND       PRES   REMARKS
GARY*          MOSUNNY   70  70 100 CALM      29.92R
VALPARAISO     SUNNY     68  66  93 NE3       29.93R
6HR MIN TEMP:  64; 6HR MAX TEMP:  68;

MICHIGAN CITY* MOSUNNY   64  64 100 CALM      29.93S FOG
LAPORTE*       MOSUNNY  N/A N/A N/A CALM      29.94R FOG
KNOX*          CLOUDY    64  63  94 CALM      29.93R VSB 1/4
SOUTH BEND     SUNNY     69  68  96 CALM      29.94R
6HR MIN TEMP:  65; 6HR MAX TEMP:  69;

ELKHART*       SUNNY     68  66  94 E5        29.95R FOG
GOSHEN         PTSUNNY   70  64  81 E3        29.95R
6HR MIN TEMP:  68; 6HR MAX TEMP:  71;

MONTICELLO*    SUNNY     69  64  85 CALM      29.92R
6HR MIN TEMP:  65; 6HR MAX TEMP:  69;

LOGANSPORT*      N/A     66  66 100 CALM      29.94R FOG
ROCHESTER*       N/A     70  70 100 CALM      29.94R FOG
WARSAW*        SUNNY     68  68 100 CALM      29.94R FOG
ANGOLA*        MOSUNNY   68  61  77 E6        29.95R
FORT WAYNE     PTSUNNY   70  67  90 E5        29.95R FOG
6HR MIN TEMP:  68; 6HR MAX TEMP:  71;

HUNTINGTON*    SUNNY     69  68  96 CALM      29.94R FOG
6HR MIN TEMP:  65; 6HR MAX TEMP:  69;

PERU/GRISSOM   SUNNY     69  69 100 CALM      29.92S
6HR MIN TEMP:  64; 6HR MAX TEMP:  69;

MARION*        MOSUNNY   64  64 100 CALM      29.94S FOG
6HR MIN TEMP:  59; 6HR MAX TEMP:  90;


$$
INZ028>050-291300-
CENTRAL INDIANA

CITY           SKY/WX    TMP DP  RH WIND       PRES   REMARKS
LAFAYETTE      MOSUNNY   69  69 100 CALM      29.92R FOG
6HR MIN TEMP:  68; 6HR MAX TEMP:  69;

KOKOMO*        CLOUDY    70  63  78 CALM      29.94R
6HR MIN TEMP:  63; 6HR MAX TEMP:  70;

MUNCIE*        SUNNY     72  67  84 CALM      29.94R
6HR MIN TEMP:  67; 6HR MAX TEMP:  74;

INDIANAPOLIS   MOSUNNY   71  68  90 S5        29.94R
6HR MIN TEMP:  69; 6HR MAX TEMP:  73;


$$
MIZ043>046-050>051-056>058-064>065-071>073-077>080-291300-
SOUTHWEST LOWER MICHIGAN

CITY           SKY/WX    TMP DP  RH WIND       PRES   REMARKS
BATTLE CREEK   CLOUDY    65  65 100 E6        29.98R
6HR MIN TEMP:  65; 6HR MAX TEMP:  68; 6HR PCP:  0.06;

BENTON HARBOR  MOSUNNY   69  65  86 E6        29.93R
6HR MIN TEMP:  66; 6HR MAX TEMP:  69;

COLDWATER*     CLOUDY    69  63  81 E3        29.96R
6HR MIN TEMP:  67; 6HR MAX TEMP:  70;

HILLSDALE*     PTSUNNY   67  61  79 NE3       29.97R
6HR MIN TEMP:  59; 6HR MAX TEMP:  87;

HOLLAND        CLOUDY    67  64  90 E7        29.97S
6HR MIN TEMP:  67; 6HR MAX TEMP:  70; 6HR PCP:  0.01;

GRAND RAPIDS   PTSUNNY   67  63  87 NE12      29.98S
6HR MIN TEMP:  66; 6HR MAX TEMP:  69; 6HR PCP:  0.01;

KALAMAZOO      PTSUNNY   68  63  84 NE5       29.97R
6HR MIN TEMP:  67; 6HR MAX TEMP:  70;

STURGIS*       PTSUNNY   67  65  93 E3        29.95R
6HR MIN TEMP:  65; 6HR MAX TEMP:  68; 6HR PCP:  0.03;

THREE RIVERS*  FAIR      69  65  87 E5        29.96R
6HR MIN TEMP:  68; 6HR MAX TEMP:  70;


$$
OHZ001>008-015>018-024>025-291300-
NORTHWEST OHIO

CITY           SKY/WX    TMP DP  RH WIND       PRES   REMARKS
DEFIANCE       CLOUDY    72  60  66 NE5       29.95R
6HR MIN TEMP:  69; 6HR MAX TEMP:  73;

FINDLAY        SUNNY     72  65  78 NE6       29.94R
6HR MIN TEMP:  65; 6HR MAX TEMP:  74;

TOLEDO EXPRESS SUNNY     70  62  76 N3        29.94R
6HR MIN TEMP:  66; 6HR MAX TEMP:  73;

TOLEDO METCALF SUNNY     73  64  73 N6        29.95R
6HR MIN TEMP:  70; 6HR MAX TEMP:  75;

LIMA           MOSUNNY   69  67  93 NE3       29.95R FOG
6HR MIN TEMP:  64; 6HR MAX TEMP:  69;


$$
AND FOR LAKE MICHIGAN COASTAL AND OPEN LAKE BUOY OBSERVATIONS

STATION/POSITION TEMP    WIND        PRES    VSBY  WAVE
                 AIR SEA DIR/SP/G                  HT/PER
                 (F)     (DEG/KT/KT) (MB)    (MI)  (FT/S)
CALUMET HARBOR    72      10/  2/  2 1012.3R
MICHIGAN CITY     68      90/  2/  3   N/A
BURNS HARBOR      71     110/  5/  7 1013.2S
SAINT JOSEPH      70      30/  2/  5 1014.2R
SOUTH LAKE BUOY   71 75   80/ 16/ 19 1013.0R         3/ 4
4 MI NW BRIDGMAN  70 76  110/  6/  8 1013.4R         2
MICHIGAN CITY     72 77   90/  4/  6   N/A           2/ 6

$$
&&




USA.gov is the U.S. government's official web portal to all federal, state and local government web resources and services.